Previsão horária em Ploskoe

Hoje, 7 Março, Domingo

Tempo Temperatura Precipitação Vento Pressão Humidade
00:00 -7°C° 0 mm 7 m/s 739 mmHg 73%
01:00 -7°C° 0 mm 7 m/s 738 mmHg 72%
02:00 -7°C° 0 mm 8 m/s 737 mmHg 72%
03:00 -7°C° 0 mm 8 m/s 736 mmHg 76%
04:00 -8°C° 0 mm 9 m/s 734 mmHg 80%
05:00 -6°C° 0 mm 9 m/s 733 mmHg 84%
06:00 -6°C° 0.1 mm 9 m/s 732 mmHg 86%
07:00 -5°C° 0.1 mm 10 m/s 732 mmHg 87%
08:00 -5°C° 0.1 mm 10 m/s 731 mmHg 89%
09:00 -5°C° 0.6 mm 9 m/s 731 mmHg 90%
10:00 -5°C° 0.6 mm 8 m/s 730 mmHg 91%
11:00 -4°C° 0.6 mm 6 m/s 730 mmHg 92%
12:00 -4°C° 0.3 mm 7 m/s 730 mmHg 83%
13:00 -4°C° 0.3 mm 8 m/s 730 mmHg 73%
14:00 -4°C° 0.3 mm 9 m/s 730 mmHg 63%
15:00 -5°C° 0 mm 8 m/s 731 mmHg 63%
16:00 -4°C° 0 mm 6 m/s 731 mmHg 63%
17:00 -5°C° 0 mm 5 m/s 731 mmHg 62%
18:00 -6°C° 0 mm 5 m/s 731 mmHg 66%
19:00 -6°C° 0 mm 5 m/s 731 mmHg 69%
20:00 -7°C° 0 mm 5 m/s 731 mmHg 73%
21:00 -7°C° 0 mm 5 m/s 731 mmHg 73%
22:00 -7°C° 0 mm 5 m/s 731 mmHg 74%
23:00 -8°C° 0 mm 5 m/s 731 mmHg 74%

Amanhã, 8 Março, Segunda-feira

Tempo Temperatura Precipitação Vento Pressão Humidade
00:00 -9°C° 0 mm 6 m/s 731 mmHg 77%
01:00 -9°C° 0 mm 6 m/s 731 mmHg 79%
02:00 -9°C° 0 mm 6 m/s 731 mmHg 81%
03:00 -9°C° 0.2 mm 6 m/s 731 mmHg 83%
04:00 -9°C° 0.2 mm 6 m/s 732 mmHg 85%
05:00 -9°C° 0.2 mm 6 m/s 732 mmHg 87%
06:00 -9°C° 0 mm 6 m/s 733 mmHg 84%
07:00 -10°C° 0 mm 6 m/s 733 mmHg 82%
08:00 -10°C° 0 mm 6 m/s 734 mmHg 79%
09:00 -10°C° 0 mm 6 m/s 735 mmHg 77%
10:00 -9°C° 0 mm 6 m/s 735 mmHg 74%
11:00 -9°C° 0 mm 6 m/s 736 mmHg 72%
12:00 -8°C° 0 mm 6 m/s 737 mmHg 72%
13:00 -8°C° 0 mm 6 m/s 737 mmHg 73%
14:00 -8°C° 0 mm 6 m/s 738 mmHg 73%
15:00 -7°C° 0 mm 5 m/s 738 mmHg 75%
16:00 -8°C° 0 mm 5 m/s 738 mmHg 77%
17:00 -8°C° 0 mm 4 m/s 738 mmHg 79%
18:00 -9°C° 0 mm 4 m/s 739 mmHg 80%
19:00 -8°C° 0 mm 3 m/s 739 mmHg 82%
20:00 -9°C° 0 mm 3 m/s 740 mmHg 84%
21:00 -9°C° 0 mm 3 m/s 740 mmHg 85%
22:00 -10°C° 0 mm 3 m/s 740 mmHg 86%
23:00 -9°C° 0 mm 2 m/s 741 mmHg 87%

Depois de amanhã, 9 Março, Terça-feira

Tempo Temperatura Precipitação Vento Pressão Humidade
00:00 -9°C° 0 mm 2 m/s 741 mmHg 89%
01:00 -10°C° 0 mm 2 m/s 741 mmHg 90%
02:00 -10°C° 0 mm 2 m/s 742 mmHg 91%
03:00 -10°C° 0 mm 2 m/s 742 mmHg 92%
04:00 -10°C° 0 mm 2 m/s 742 mmHg 92%
05:00 -12°C° 0 mm 2 m/s 743 mmHg 93%
06:00 -12°C° 0 mm 2 m/s 743 mmHg 92%
07:00 -13°C° 0 mm 3 m/s 744 mmHg 91%
08:00 -13°C° 0 mm 3 m/s 744 mmHg 89%
09:00 -12°C° 0 mm 3 m/s 744 mmHg 84%
10:00 -10°C° 0 mm 3 m/s 745 mmHg 79%
11:00 -10°C° 0 mm 3 m/s 745 mmHg 73%
12:00 -9°C° 0 mm 3 m/s 745 mmHg 69%
13:00 -8°C° 0 mm 3 m/s 745 mmHg 66%
14:00 -8°C° 0 mm 3 m/s 745 mmHg 62%
15:00 -7°C° 0 mm 2 m/s 745 mmHg 65%
16:00 -6°C° 0 mm 1 m/s 745 mmHg 67%
17:00 -6°C° 0 mm 1 m/s 745 mmHg 70%
18:00 -7°C° 0 mm 1 m/s 745 mmHg 71%
19:00 -7°C° 0 mm 1 m/s 746 mmHg 72%
20:00 -8°C° 0 mm 1 m/s 746 mmHg 74%
21:00 -8°C° 0 mm 1 m/s 746 mmHg 75%
22:00 -9°C° 0 mm 2 m/s 746 mmHg 76%
23:00 -9°C° 0 mm 2 m/s 746 mmHg 77%

10 Março, Quarta-feira

Tempo Temperatura Precipitação Vento Pressão Humidade
00:00 -9°C° 0 mm 2 m/s 746 mmHg 78%
01:00 -10°C° 0 mm 3 m/s 745 mmHg 80%
02:00 -10°C° 0 mm 3 m/s 745 mmHg 81%
03:00 -9°C° 0 mm 3 m/s 745 mmHg 81%
04:00 -10°C° 0 mm 4 m/s 745 mmHg 82%
05:00 -10°C° 0 mm 4 m/s 744 mmHg 82%
06:00 -10°C° 0 mm 4 m/s 744 mmHg 82%
07:00 -11°C° 0 mm 5 m/s 744 mmHg 81%
08:00 -10°C° 0 mm 5 m/s 744 mmHg 81%
09:00 -8°C° 0.1 mm 5 m/s 744 mmHg 81%
10:00 -7°C° 0.1 mm 5 m/s 744 mmHg 81%
11:00 -8°C° 0.1 mm 6 m/s 744 mmHg 81%
12:00 -6°C° 0.1 mm 6 m/s 744 mmHg 78%
13:00 -5°C° 0.1 mm 6 m/s 744 mmHg 75%
14:00 -4°C° 0.1 mm 6 m/s 743 mmHg 72%
15:00 -4°C° 0 mm 5 m/s 743 mmHg 75%
16:00 -5°C° 0 mm 5 m/s 743 mmHg 77%
17:00 -4°C° 0 mm 4 m/s 743 mmHg 80%
18:00 -4°C° 0 mm 4 m/s 743 mmHg 83%
19:00 -5°C° 0 mm 4 m/s 743 mmHg 86%
20:00 -7°C° 0 mm 4 m/s 743 mmHg 89%
21:00 -7°C° 0 mm 4 m/s 743 mmHg 88%
22:00 -7°C° 0 mm 4 m/s 743 mmHg 87%
23:00 -5°C° 0 mm 4 m/s 743 mmHg 86%

11 Março, Quinta-feira

Tempo Temperatura Precipitação Vento Pressão Humidade
00:00 -7°C° 0 mm 4 m/s 743 mmHg 85%
01:00 -7°C° 0 mm 4 m/s 743 mmHg 84%
02:00 -8°C° 0 mm 4 m/s 743 mmHg 83%
03:00 -8°C° 0 mm 4 m/s 742 mmHg 82%
04:00 -8°C° 0 mm 4 m/s 742 mmHg 82%
05:00 -8°C° 0 mm 4 m/s 742 mmHg 82%
06:00 -8°C° 0 mm 4 m/s 741 mmHg 78%
07:00 -8°C° 0 mm 4 m/s 741 mmHg 75%
08:00 -8°C° 0 mm 4 m/s 741 mmHg 71%
09:00 -7°C° 0 mm 5 m/s 741 mmHg 68%
10:00 -5°C° 0 mm 5 m/s 740 mmHg 65%
11:00 -4°C° 0 mm 6 m/s 740 mmHg 62%
12:00 -4°C° 0 mm 6 m/s 739 mmHg 62%
13:00 -4°C° 0 mm 6 m/s 738 mmHg 63%
14:00 -3°C° 0 mm 7 m/s 737 mmHg 63%
15:00 -4°C° 0 mm 7 m/s 737 mmHg 70%
16:00 -4°C° 0 mm 7 m/s 736 mmHg 77%
17:00 -4°C° 0 mm 7 m/s 735 mmHg 84%
18:00 -5°C° 0.4 mm 8 m/s 734 mmHg 88%
19:00 -5°C° 0.4 mm 8 m/s 734 mmHg 91%
20:00 -5°C° 0.4 mm 8 m/s 733 mmHg 94%
21:00 -5°C° 0.5 mm 8 m/s 732 mmHg 95%
22:00 -5°C° 0.5 mm 8 m/s 731 mmHg 95%
23:00 -5°C° 0.5 mm 9 m/s 730 mmHg 95%

12 Março, Sexta-feira

Tempo Temperatura Precipitação Vento Pressão Humidade
00:00 -4°C° 0.5 mm 8 m/s 729 mmHg 95%
01:00 -2°C° 0.5 mm 8 m/s 727 mmHg 96%
02:00 -1°C° 0.5 mm 8 m/s 726 mmHg 96%
03:00 -1°C° 1 mm 8 m/s 726 mmHg 96%
04:00 -1°C° 1 mm 7 m/s 725 mmHg 96%
05:00 0°C° 1 mm 7 m/s 724 mmHg 96%
06:00 0°C° 0 mm 7 m/s 724 mmHg 95%
07:00 0°C° 0 mm 7 m/s 724 mmHg 94%
08:00 0°C° 0 mm 7 m/s 724 mmHg 93%
09:00 0°C° 0.2 mm 7 m/s 725 mmHg 93%
10:00 0°C° 0.2 mm 7 m/s 725 mmHg 93%
11:00 -1°C° 0.2 mm 7 m/s 725 mmHg 93%
12:00 0°C° 0.1 mm 7 m/s 726 mmHg 91%
13:00 0°C° 0.1 mm 7 m/s 726 mmHg 89%
14:00 0°C° 0.1 mm 8 m/s 727 mmHg 87%
15:00 0°C° 0 mm 7 m/s 726 mmHg 85%
16:00 0°C° 0 mm 7 m/s 726 mmHg 83%
17:00 0°C° 0 mm 7 m/s 726 mmHg 81%
18:00 0°C° 0 mm 7 m/s 726 mmHg 82%
19:00 0°C° 0 mm 7 m/s 726 mmHg 84%
20:00 -1°C° 0 mm 7 m/s 726 mmHg 85%
21:00 -1°C° 0 mm 8 m/s 726 mmHg 86%
22:00 -1°C° 0 mm 8 m/s 726 mmHg 88%
23:00 -2°C° 0 mm 8 m/s 726 mmHg 89%
Mostrar mais

Necessitamos do seu Consentimento

A Meteoprog e os seus Fornecedores de Serviços podem armazenar e aceder a dados pessoais como cookies, identificadores do dispositivo ou outras tecnologias semelhantes existentes no seu dispositivo e processar estes dados para personalizar conteúdos e anúncios, assim como funcionalidades nas redes sociais e análise de tráfego.

  • Armazenar e/ou aceder a informações no seu dispositivo

    Os cookies, identificadores do dispositivo ou outras informações podem ser armazenados ou acedidos no seu dispositivo, para os fins acima indicados.

  • Anúncios e conteúdos personalizados, medição de anúncios e conteúdos, dados sobre o público-alvo e desenvolvimento de produtos

    Os anúncios e os conteúdos podem ser personalizados com base num perfil. Podem ser adicionados dados adicionais para uma maior personalização dos anúncios e dos conteúdos. A eficácia dos anúncios e dos conteúdos pode ser medida. Podem ser obtidas informações sobre o público que visualizou os anúncios e os conteúdos. Estes dados podem ser usados para desenvolver ou melhorar sistemas, softwares ou a experiência do utilizador.

Ao clicar em "Eu concordo”, permitirá o uso de cookies, identificadores do dispositivo e web beacons mencionados ou outras tecnologias semelhantes. As configurações do navegador do seu dispositivo podem ser alteradas.

Para certos fins, podem ser invocados interesses legítimos ao invés de consentimento. Pode ler mais informação sobre este assunto na nossa Política de Privacidade e Cookies.